Date,TemperatureHighF,TemperatureAvgF,TemperatureLowF,DewpointHighF,DewpointAvgF,DewpointLowF,HumidityHigh,HumidityAvg,HumidityLow,PressureMaxIn,PressureMinIn,WindSpeedMaxMPH,WindSpeedAvgMPH,GustSpeedMaxMPH,PrecipitationSumIn
2013-1-1,46.0,40.2,34.0,37.0,32.1,23.0,99,74,46,0.00,40.00,8,3,11,0.00
2013-1-2,48.0,43.2,37.0,38.0,33.7,29.0,79,69,57,0.00,40.00,9,4,11,0.00
2013-1-3,51.0,43.3,37.0,40.0,35.5,18.0,90,75,33,0.00,40.00,9,3,14,0.00
2013-1-4,49.0,44.7,40.0,39.0,35.9,28.0,84,71,54,0.00,40.00,9,6,11,0.00
2013-1-5,48.0,44.6,41.0,43.0,41.0,32.0,100,88,57,0.00,40.00,16,2,21,0.18
2013-1-6,42.0,40.5,39.0,42.0,40.2,39.0,100,99,93,0.00,40.00,5,1,14,0.42
2013-1-7,52.0,46.1,42.0,45.0,40.9,34.0,99,83,58,0.00,40.00,7,2,15,0.01
2013-1-8,55.0,49.7,44.0,49.0,41.7,36.0,95,74,57,0.00,40.00,6,3,10,0.01
2013-1-9,51.0,45.2,39.0,47.0,40.1,33.0,100,83,54,0.00,40.00,25,3,32,0.00
2013-1-10,45.0,39.2,36.0,33.0,30.9,28.0,83,72,54,0.00,40.00,25,6,35,0.00
2013-1-11,44.0,38.4,34.0,39.0,30.9,27.0,98,75,60,0.00,40.00,18,5,25,0.00
2013-1-12,45.0,37.7,33.0,33.0,23.7,17.0,89,58,42,0.00,40.00,6,3,10,0.00
2013-1-13,43.0,35.3,30.0,21.0,17.3,12.0,67,48,38,0.00,40.00,8,4,15,0.00
2013-1-14,45.0,36.9,30.0,22.0,14.3,9.0,48,40,26,0.00,40.00,7,4,19,0.00
2013-1-15,45.0,41.2,37.0,29.0,23.8,13.0,69,50,32,0.00,40.00,8,4,11,0.00
2013-1-16,47.0,42.5,37.0,33.0,27.8,22.0,69,56,40,0.00,40.00,10,6,13,0.00
2013-1-17,53.0,47.0,41.0,38.0,30.1,24.0,60,52,37,0.00,40.00,8,4,11,0.00
2013-1-18,57.0,49.8,43.0,38.0,32.0,19.0,75,51,25,0.00,40.00,7,2,10,0.00
2013-1-19,54.0,51.6,48.0,41.0,32.6,17.0,62,50,24,0.00,40.00,7,4,9,0.00
2013-1-20,56.0,53.0,47.0,40.0,32.8,18.0,68,47,26,0.00,40.00,6,4,9,0.00
2013-1-21,55.0,50.6,44.0,41.0,34.2,21.0,67,54,27,0.00,40.00,8,3,11,0.00
2013-1-22,60.0,50.8,45.0,44.0,39.1,25.0,73,65,26,0.00,40.00,6,2,10,0.00
2013-1-23,62.0,52.6,45.0,48.0,37.1,19.0,100,62,20,0.00,40.00,0,0,0,0.03
2013-1-24,52.0,47.6,45.0,52.0,47.6,45.0,100,100,100,0.00,40.00,0,0,0,0.33
2013-1-25,57.0,52.3,49.0,57.0,52.3,49.0,100,100,100,0.00,40.00,6,1,9,0.03
2013-1-26,53.0,48.2,42.0,53.0,45.3,38.0,100,91,62,0.00,40.00,37,1,46,0.01
2013-1-27,51.0,43.4,38.0,40.0,36.2,29.0,95,78,43,0.00,40.00,19,4,24,0.01
2013-1-28,54.0,44.0,38.0,41.0,36.7,32.0,92,77,47,0.00,40.00,19,4,24,0.00
2013-1-29,54.0,46.8,40.0,41.0,38.4,37.0,98,74,54,0.00,40.00,21,7,28,0.00
2013-1-30,61.0,52.4,46.0,42.0,36.7,29.0,68,56,39,0.00,40.00,7,2,12,0.00
2013-1-31,57.0,51.0,44.0,46.0,43.2,38.0,83,75,65,0.00,40.00,8,5,13,0.00
2013-2-1,58.0,51.6,46.0,50.0,45.6,43.0,91,80,67,0.00,40.00,6,2,8,0.00
2013-2-2,57.0,52.3,47.0,51.0,47.7,44.0,100,85,67,0.00,40.00,8,3,19,0.00
2013-2-3,57.0,48.5,42.0,48.0,44.5,40.0,100,87,65,0.00,40.00,19,7,26,0.00
2013-2-4,59.0,54.0,48.0,53.0,43.8,36.0,85,69,53,0.00,40.00,7,2,12,0.00
2013-2-5,50.0,44.8,41.0,46.0,43.5,41.0,100,95,78,0.00,40.00,36,5,42,0.01
2013-2-6,56.0,46.7,41.0,45.0,41.6,38.0,100,84,61,0.00,40.00,25,4,35,0.01
2013-2-7,50.0,43.8,39.0,44.0,37.7,34.0,100,80,57,0.00,40.00,20,5,27,0.00
2013-2-8,48.0,40.6,36.0,40.0,36.4,26.0,100,86,52,0.00,40.00,12,2,21,0.00
2013-2-9,53.0,45.3,41.0,29.0,24.9,21.0,52,45,39,0.00,40.00,11,3,18,0.00
2013-2-10,54.0,48.0,42.0,37.0,31.0,24.0,58,52,44,0.00,40.00,10,4,15,0.00
2013-2-11,57.0,48.5,40.0,33.0,25.7,22.0,57,42,28,0.00,40.00,7,3,12,0.00
2013-2-12,55.0,49.3,44.0,40.0,30.5,23.0,66,48,35,0.00,40.00,11,4,17,0.00
2013-2-13,60.0,52.5,47.0,43.0,36.3,32.0,63,54,42,0.00,40.00,13,3,19,0.00
2013-2-14,62.0,55.3,49.0,43.0,38.8,33.0,66,54,42,0.00,40.00,6,2,10,0.00
2013-2-15,63.0,57.5,51.0,48.0,40.6,33.0,62,53,42,0.00,40.00,7,3,12,0.00
2013-2-16,62.0,56.6,52.0,49.0,43.3,39.0,74,61,52,0.00,40.00,17,7,23,0.00
2013-2-17,61.0,53.3,42.0,44.0,38.5,32.0,100,59,39,0.00,40.00,22,9,30,0.00
2013-2-18,51.0,44.6,40.0,44.0,38.4,34.0,100,80,55,0.00,40.00,23,3,32,0.00
2013-2-19,45.0,39.5,35.0,40.0,36.1,31.0,100,88,70,0.00,40.00,0,0,0,0.40
2013-2-20,54.0,44.1,35.0,38.0,33.9,28.0,96,69,43,0.00,40.00,17,8,27,0.06
2013-2-21,55.0,45.8,40.0,39.0,34.4,27.0,95,67,39,0.00,40.00,10,4,20,0.00
2013-2-22,59.0,50.4,43.0,43.0,33.0,25.0,100,53,41,0.00,40.00,26,7,34,0.00
2013-2-23,54.0,47.6,43.0,44.0,32.4,19.0,100,61,33,0.00,40.00,19,5,39,0.00
2013-2-24,57.0,47.7,41.0,31.0,21.9,17.0,44,36,26,0.00,40.00,8,2,16,0.00
2013-2-25,60.0,52.2,46.0,42.0,29.3,17.0,57,42,26,0.00,40.00,12,5,18,0.00
2013-2-26,62.0,52.4,43.0,31.0,23.7,19.0,55,34,23,0.00,40.00,9,5,16,0.00
2013-2-27,63.0,56.7,53.0,39.0,27.8,15.0,53,34,21,0.00,40.00,21,5,26,0.00
2013-2-28,66.0,56.5,48.0,51.0,44.8,36.0,80,65,53,0.00,40.00,17,5,23,0.00
2013-3-1,66.0,60.0,54.0,49.0,44.7,39.0,73,58,43,0.00,40.00,7,4,11,0.00
2013-3-2,66.0,59.5,55.0,55.0,47.7,39.0,77,65,47,0.00,40.00,15,6,24,0.00
2013-3-3,60.0,53.4,43.0,48.0,43.5,39.0,100,71,51,0.00,40.00,28,15,36,0.00
2013-3-4,59.0,48.0,41.0,50.0,44.7,41.0,100,89,69,0.00,40.00,19,6,27,0.00
2013-3-5,59.0,48.8,40.0,46.0,37.5,28.0,100,69,39,0.00,40.00,26,7,33,0.00
2013-3-6,51.0,47.1,42.0,42.0,38.3,35.0,91,72,59,0.00,40.00,0,0,0,0.02
2013-3-7,52.0,45.9,41.0,44.0,38.0,34.0,100,75,61,0.00,40.00,8,3,12,0.10
2013-3-8,54.0,46.0,42.0,44.0,39.8,34.0,100,81,57,0.00,40.00,29,8,36,0.12
2013-3-9,64.0,51.4,41.0,42.0,36.1,28.0,96,62,26,0.00,40.00,13,6,36,0.01
2013-3-10,65.0,57.5,50.0,37.0,32.5,24.0,46,39,29,0.00,40.00,10,4,16,0.00
2013-3-11,70.0,60.0,53.0,45.0,38.2,28.0,53,45,34,0.00,40.00,10,3,16,0.00
2013-3-12,71.0,63.3,56.0,48.0,43.7,35.0,59,49,39,0.00,40.00,8,3,11,0.00
2013-3-13,73.0,65.3,57.0,54.0,47.7,43.0,64,53,48,0.00,40.00,11,5,16,0.00
2013-3-14,73.0,64.6,59.0,54.0,46.9,35.0,64,53,39,0.00,40.00,21,10,29,0.00
2013-3-15,69.0,62.1,57.0,48.0,41.1,31.0,56,47,34,0.00,40.00,20,11,27,0.00
2013-3-16,69.0,61.0,54.0,47.0,41.2,37.0,64,49,36,0.00,40.00,27,14,36,0.00
2013-3-17,67.0,55.9,48.0,44.0,38.4,32.0,71,53,30,0.00,40.00,27,7,36,0.00
2013-3-18,65.0,58.2,51.0,43.0,36.5,28.0,60,45,34,0.00,40.00,30,9,36,0.00
2013-3-19,70.0,58.5,47.0,46.0,37.7,25.0,93,48,30,0.00,40.00,23,9,34,0.03
2013-3-20,63.0,54.9,47.0,55.0,49.0,44.0,100,82,49,0.00,40.00,19,8,28,0.06
2013-3-21,62.0,50.4,41.0,49.0,40.3,30.0,100,73,37,0.00,40.00,31,8,37,0.01
2013-3-22,62.0,53.4,46.0,30.0,17.8,13.0,43,25,16,0.00,40.00,10,6,23,0.00
2013-3-23,66.0,54.5,45.0,34.0,23.0,15.0,48,30,21,0.00,40.00,8,3,18,0.00
2013-3-24,70.0,60.1,54.0,44.0,33.7,23.0,52,37,28,0.00,40.00,19,7,26,0.00
2013-3-25,62.0,53.3,44.0,44.0,37.6,25.0,95,58,27,0.00,40.00,23,11,37,0.00
2013-3-26,67.0,52.1,42.0,46.0,42.8,41.0,100,74,43,0.00,40.00,22,8,37,0.00
2013-3-27,63.0,54.4,49.0,50.0,44.4,39.0,88,70,58,0.00,40.00,25,7,30,0.00
2013-3-28,67.0,60.8,55.0,52.0,50.3,47.0,80,69,57,0.00,40.00,6,4,11,0.00
2013-3-29,72.0,59.6,50.0,52.0,49.7,47.0,95,72,49,0.00,40.00,6,3,12,0.00
2013-3-30,71.0,60.5,53.0,55.0,48.0,-99.9,93,69,41,0.00,40.00,28,13,35,0.01
2013-3-31,61.0,55.1,51.0,54.0,50.2,44.0,100,85,64,0.00,40.00,20,5,27,0.15
2013-4-1,62.0,54.3,49.0,54.0,50.8,46.0,100,89,68,0.00,40.00,15,3,22,0.07
2013-4-2,69.0,57.3,47.0,52.0,48.5,45.0,100,73,51,0.00,40.00,19,6,27,0.01
2013-4-3,72.0,63.1,55.0,51.0,46.3,36.0,78,55,43,0.00,40.00,19,7,27,0.00
2013-4-4,64.0,56.6,49.0,57.0,49.5,36.0,100,80,49,0.00,40.00,23,9,34,0.19
2013-4-5,62.0,54.0,49.0,52.0,49.4,47.0,100,86,62,0.00,40.00,23,9,30,0.01
2013-4-6,62.0,54.1,49.0,51.0,49.0,46.0,100,83,65,0.00,40.00,22,8,27,0.00
2013-4-7,62.0,52.4,47.0,51.0,47.6,41.0,100,85,65,0.00,40.00,33,10,45,0.03
2013-4-8,63.0,51.2,41.0,47.0,33.4,22.0,100,57,24,0.00,40.00,23,11,33,0.12
2013-4-9,70.0,58.9,49.0,32.0,29.1,27.0,46,33,20,0.00,40.00,12,4,23,0.00
2013-4-10,84.0,69.1,59.0,47.0,40.1,30.0,56,36,26,0.00,40.00,34,12,44,0.00
2013-4-11,72.0,60.4,51.0,48.0,43.9,38.0,75,55,35,0.00,40.00,34,15,44,0.00
2013-4-12,78.0,62.7,48.0,43.0,37.5,33.0,81,41,23,0.00,40.00,23,13,30,0.00
2013-4-13,65.0,55.8,47.0,45.0,40.8,34.0,81,58,38,0.00,40.00,28,20,36,0.00
2013-4-14,64.0,53.4,46.0,45.0,37.2,33.0,93,56,33,0.00,40.00,35,9,44,0.00
2013-4-15,52.0,46.1,42.0,46.0,39.3,30.0,100,80,43,0.00,40.00,36,4,50,0.00
2013-4-16,63.0,51.4,41.0,36.0,24.9,15.0,79,42,15,0.00,40.00,11,3,24,0.00
2013-4-17,66.0,54.9,45.0,26.0,22.4,19.0,45,30,17,0.00,40.00,12,6,25,0.00
2013-4-18,72.0,60.2,52.0,36.0,26.7,19.0,40,28,20,0.00,40.00,10,6,17,0.00
2013-4-19,80.0,67.6,58.0,45.0,38.0,32.0,50,34,24,0.00,40.00,17,8,23,0.00
2013-4-20,79.0,66.5,59.0,43.0,36.9,32.0,56,35,18,0.00,40.00,17,9,26,0.00
2013-4-21,84.0,71.8,62.0,41.0,34.7,28.0,36,27,14,0.00,40.00,13,6,18,0.00
2013-4-22,85.0,73.2,63.0,41.0,34.3,20.0,41,26,10,0.00,40.00,11,6,22,0.00
2013-4-23,79.0,68.3,58.0,36.0,23.2,17.0,35,19,12,0.00,40.00,21,8,29,0.00
2013-4-24,77.0,64.2,49.0,49.0,36.3,22.0,99,40,19,0.00,40.00,34,14,41,0.00
2013-4-25,67.0,55.3,48.0,49.0,48.1,47.0,100,80,49,0.00,40.00,33,15,47,0.00
2013-4-26,76.0,58.7,45.0,49.0,46.6,39.0,100,70,35,0.00,40.00,26,8,32,0.00
2013-4-27,86.0,72.4,60.0,50.0,39.9,27.0,43,31,20,0.00,40.00,23,10,30,0.00
2013-4-28,87.0,77.0,65.0,50.0,44.8,33.0,43,33,25,0.00,40.00,20,7,26,0.00
2013-4-29,88.0,76.4,69.0,47.0,40.7,35.0,40,29,20,0.00,40.00,15,7,22,0.00
2013-4-30,82.0,70.7,63.0,46.0,22.4,9.0,52,20,8,0.00,40.00,22,9,29,0.00
2013-5-1,82.0,69.8,57.0,31.0,20.3,9.0,20,15,10,0.00,40.00,11,6,25,0.00
2013-5-2,88.0,75.6,63.0,31.0,21.4,11.0,19,13,10,0.00,40.00,22,9,27,0.00
2013-5-3,88.0,77.6,71.0,35.0,26.3,16.0,19,15,11,0.00,40.00,22,12,29,0.00
2013-5-4,86.0,74.9,55.0,44.0,31.3,26.0,65,22,13,0.00,40.00,22,8,31,0.00
2013-5-5,68.0,57.9,49.0,46.0,44.2,42.0,82,62,45,0.00,40.00,22,9,31,0.00
2013-5-6,63.0,58.2,54.0,53.0,48.3,43.0,91,70,48,0.00,40.00,16,6,23,0.12
2013-5-7,67.0,58.1,53.0,51.0,47.3,43.0,86,69,48,0.00,40.00,21,6,26,0.01
2013-5-8,66.0,55.8,49.0,50.0,46.8,41.0,100,74,52,0.00,40.00,31,15,38,0.00
2013-5-9,69.0,54.6,47.0,51.0,48.5,47.0,100,83,50,0.00,40.00,30,13,43,0.00
2013-5-10,77.0,62.8,47.0,54.0,45.5,-99.9,100,62,38,0.00,40.00,29,16,36,0.00
2013-5-11,91.0,76.7,67.0,54.0,45.8,-99.9,50,36,21,0.00,40.00,22,11,31,0.00
2013-5-12,83.0,75.6,70.0,50.0,38.8,23.0,43,27,17,0.00,40.00,32,14,40,0.00
2013-5-13,82.0,71.8,60.0,49.0,39.2,14.0,62,32,10,0.00,40.00,32,23,38,0.00
2013-5-14,75.0,62.7,50.0,49.0,45.9,42.0,92,56,36,0.00,40.00,38,25,46,0.00
2013-5-15,67.0,54.2,48.0,46.0,42.0,37.0,84,65,33,0.00,40.00,40,21,50,0.00
2013-5-16,65.0,50.5,50.0,53.0,32.1,-99.9,97,77,52,0.00,40.00,41,15,50,0.01
2013-5-17,64.0,53.7,48.0,46.0,37.3,-99.9,87,64,37,0.00,40.00,41,32,51,0.01
2013-5-18,73.0,57.6,46.0,47.0,43.2,40.0,90,62,35,0.00,40.00,32,23,41,0.00
2013-5-19,83.0,68.2,57.0,46.0,37.8,28.0,63,36,14,0.00,40.00,29,11,40,0.00
2013-5-20,87.0,74.3,67.0,35.0,29.8,15.0,25,20,11,0.00,40.00,29,11,37,0.00
2013-5-21,70.0,58.9,49.0,44.0,37.1,9.0,73,47,9,0.00,40.00,46,32,62,0.00
2013-5-22,66.0,51.7,45.0,39.0,29.9,17.0,75,49,15,0.00,40.00,38,16,44,0.00
2013-5-23,67.0,52.9,43.0,41.0,37.8,27.0,88,60,34,0.00,40.00,33,23,43,0.00
2013-5-24,71.0,57.7,46.0,40.0,34.5,27.0,79,44,23,0.00,40.00,37,21,46,0.00
2013-5-25,64.0,51.6,44.0,47.0,41.5,37.0,95,71,39,0.00,40.00,38,29,46,0.00
2013-5-26,67.0,55.2,49.0,51.0,47.7,44.0,100,79,44,0.00,40.00,42,31,51,0.00
2013-5-27,60.0,53.9,49.0,53.0,49.3,45.0,95,85,70,0.00,40.00,37,28,45,0.00
2013-5-28,68.0,59.1,53.0,55.0,51.7,47.0,100,79,48,0.00,40.00,33,23,41,0.00
2013-5-29,67.0,59.1,52.0,52.0,46.5,37.0,92,64,47,0.00,40.00,33,25,40,0.00
2013-5-30,75.0,63.4,53.0,43.0,38.6,29.0,66,43,24,0.00,40.00,27,19,36,0.00
2013-5-31,90.0,73.9,60.0,41.0,36.3,29.0,44,27,12,0.00,40.00,20,12,28,0.00
2013-6-1,95.0,81.7,71.0,43.0,38.7,34.0,33,22,14,0.00,40.00,19,11,25,0.00
2013-6-2,87.0,75.3,64.0,50.0,44.7,39.0,59,35,23,0.00,40.00,26,15,32,0.00
2013-6-3,81.0,68.6,54.0,50.0,47.9,43.0,74,50,33,0.00,40.00,30,17,39,0.00
2013-6-4,74.0,60.1,50.0,52.0,50.9,49.0,100,74,46,0.00,40.00,34,27,41,0.00
2013-6-5,76.0,60.3,50.0,52.0,50.4,49.0,100,74,41,0.00,40.00,33,23,46,0.00
2013-6-6,84.0,67.2,50.0,53.0,51.3,49.0,100,61,35,0.00,40.00,26,17,35,0.00
2013-6-7,100.0,83.2,71.0,57.0,51.8,41.0,50,35,19,0.00,40.00,24,11,31,0.00
2013-6-8,104.0,88.6,66.0,56.0,49.2,35.0,66,28,15,0.00,40.00,32,13,41,0.00
2013-6-9,76.0,62.3,54.0,55.0,53.3,52.0,95,74,48,0.00,40.00,40,30,50,0.00
2013-6-10,72.0,60.4,53.0,53.0,50.6,48.0,95,73,45,0.00,40.00,16,7,43,0.02
2013-6-11,82.0,63.3,51.0,55.0,52.0,48.0,100,70,39,0.00,40.00,26,11,35,0.02
2013-6-12,77.0,67.8,56.0,49.0,37.4,27.0,58,35,16,0.00,40.00,36,22,42,0.00
2013-6-13,80.0,66.2,52.0,43.0,37.8,31.0,70,37,24,0.00,40.00,36,17,42,0.00
2013-6-14,86.0,72.5,63.0,39.0,33.4,24.0,36,25,14,0.00,40.00,21,10,30,0.00
2013-6-15,78.0,69.3,57.0,49.0,41.2,25.0,62,38,16,0.00,40.00,34,22,42,0.00
2013-6-16,79.0,67.8,58.0,45.0,39.3,33.0,52,36,25,0.00,40.00,33,26,43,0.00
2013-6-17,71.0,63.0,56.0,51.0,45.2,41.0,81,54,37,0.00,40.00,42,34,53,0.00
2013-6-18,62.0,56.3,50.0,51.0,46.5,42.0,97,71,48,0.00,40.00,44,38,55,0.00
2013-6-19,72.0,58.3,49.0,47.0,43.8,41.0,88,62,35,0.00,40.00,40,15,51,0.00
2013-6-20,78.0,60.4,53.0,45.0,43.6,41.0,70,56,28,0.00,40.00,27,16,33,0.00
2013-6-21,82.0,79.8,76.0,44.0,38.4,25.0,28,23,15,0.00,40.00,20,15,26,0.00
2013-6-22,90.0,77.6,64.0,43.0,37.0,32.0,46,24,14,0.00,40.00,33,17,41,0.00
2013-6-23,66.0,60.4,54.0,58.0,53.9,43.0,96,80,46,0.00,40.00,46,34,58,0.00
2013-6-24,65.0,60.6,57.0,62.0,59.3,57.0,100,95,80,0.00,40.00,27,7,32,0.05
2013-6-25,77.0,66.4,59.0,64.0,60.6,59.0,100,83,57,0.00,40.00,23,10,31,0.05
2013-6-26,83.0,70.5,60.0,62.0,59.3,56.0,100,71,45,0.00,40.00,20,12,27,0.01
2013-6-27,93.0,76.5,64.0,58.0,53.8,40.0,79,50,25,0.00,40.00,26,13,34,0.00
2013-6-28,100.0,88.0,78.0,57.0,49.8,40.0,45,28,17,0.00,40.00,23,12,30,0.00
2013-6-29,103.0,89.2,80.0,53.0,45.5,41.0,28,22,17,0.00,40.00,22,16,30,0.00
2013-6-30,96.0,87.2,80.0,52.0,46.2,38.0,31,24,18,0.00,40.00,25,19,30,0.00
2013-7-1,99.0,89.8,78.0,54.0,44.8,41.0,31,22,14,0.00,40.00,27,13,32,0.00
2013-7-2,102.0,89.4,75.0,58.0,50.8,41.0,48,28,19,0.00,40.00,27,14,34,0.00
2013-7-3,99.0,87.7,73.0,56.0,53.5,48.0,54,33,23,0.00,40.00,25,12,31,0.00
2013-7-4,100.0,89.2,80.0,57.0,52.3,42.0,41,29,22,0.00,40.00,33,16,41,0.00
2013-7-5,82.0,66.8,55.0,52.0,48.1,39.0,81,54,23,0.00,40.00,42,30,50,0.00
2013-7-6,82.0,62.9,51.0,52.0,50.8,48.0,96,68,33,0.00,40.00,18,6,36,0.00
2013-7-7,87.0,73.2,60.0,51.0,46.9,29.0,62,42,20,0.00,40.00,14,8,25,0.00
2013-7-8,90.0,72.7,62.0,51.0,43.9,-99.9,61,39,19,0.00,40.00,16,8,25,0.00
2013-7-9,96.0,84.9,68.0,53.0,45.9,32.0,49,27,17,0.00,40.00,18,7,23,0.00
2013-7-10,89.0,77.3,69.0,47.0,36.9,-99.9,45,26,16,0.00,40.00,27,20,35,0.00
2013-7-11,82.0,65.9,51.0,52.0,47.7,39.0,97,56,23,0.00,40.00,29,24,37,0.00
2013-7-12,84.0,68.5,56.0,51.0,44.4,38.0,80,45,23,0.00,40.00,31,16,37,0.00
2013-7-13,90.0,81.0,71.0,40.0,36.1,28.0,32,21,14,0.00,40.00,28,18,35,0.00
2013-7-14,86.0,75.9,68.0,45.0,40.2,34.0,44,28,20,0.00,40.00,27,22,34,0.00
2013-7-15,77.0,63.0,51.0,51.0,47.9,42.0,97,61,37,0.00,40.00,30,23,36,0.00
2013-7-16,71.0,63.5,54.0,53.0,51.2,50.0,94,66,48,0.00,40.00,36,26,45,0.00
2013-7-17,83.0,65.7,52.0,53.0,50.3,39.0,96,64,29,0.00,40.00,34,18,41,0.00
2013-7-18,90.0,81.7,72.0,43.0,38.4,34.0,30,22,15,0.00,40.00,28,17,35,0.00
2013-7-19,93.0,83.6,75.0,48.0,44.6,36.0,39,26,19,0.00,40.00,24,16,33,0.00
2013-7-20,92.0,80.8,71.0,54.0,46.2,-99.9,54,32,21,0.00,40.00,24,17,32,0.00
2013-7-21,90.0,80.8,70.0,52.0,49.1,45.0,50,34,21,0.00,40.00,28,19,37,0.00
2013-7-22,84.0,74.3,65.0,57.0,51.8,46.0,60,46,33,0.00,40.00,28,9,35,0.00
2013-7-23,88.0,75.2,64.0,56.0,50.1,33.0,70,43,22,0.00,40.00,28,13,35,0.00
2013-7-24,93.0,86.2,72.0,46.0,39.8,29.0,25,20,17,0.00,40.00,25,18,31,0.00
2013-7-25,87.0,80.4,73.0,52.0,46.7,31.0,41,31,18,0.00,40.00,34,25,41,0.00
2013-7-26,87.0,78.1,66.0,51.0,45.1,38.0,47,32,24,0.00,40.00,32,25,41,0.00
2013-7-27,88.0,74.6,62.0,55.0,49.2,43.0,65,43,22,0.00,40.00,31,21,38,0.00
2013-7-28,83.0,69.8,57.0,52.0,50.1,43.0,82,52,31,0.00,40.00,30,19,37,0.00
2013-7-29,81.0,62.5,52.0,52.0,49.6,36.0,98,66,34,0.00,40.00,27,16,35,0.00
2013-7-30,84.0,68.3,51.0,53.0,49.7,39.0,98,56,29,0.00,40.00,29,16,36,0.00
2013-7-31,80.0,67.0,52.0,52.0,44.8,35.0,95,49,21,0.00,40.00,40,26,52,0.00
2013-8-1,75.0,64.4,51.0,48.0,43.6,40.0,88,50,28,0.00,40.00,36,28,44,0.00
2013-8-2,83.0,70.7,60.0,48.0,42.8,39.0,52,38,22,0.00,40.00,28,18,36,0.00
2013-8-3,84.0,69.2,53.0,52.0,46.0,33.0,82,46,25,0.00,40.00,25,15,32,0.00
2013-8-4,80.0,63.8,51.0,52.0,49.4,41.0,100,65,25,0.00,40.00,30,20,36,0.00
2013-8-5,81.0,64.1,52.0,52.0,51.0,46.0,100,67,34,0.00,40.00,28,18,35,0.00
2013-8-6,74.0,59.8,51.0,53.0,51.1,48.0,100,76,45,0.00,40.00,36,24,42,0.00
2013-8-7,73.0,60.2,53.0,53.0,51.9,47.0,99,77,44,0.00,40.00,36,30,46,0.00
2013-8-8,77.0,60.5,53.0,54.0,53.1,52.0,100,80,44,0.00,40.00,29,19,37,0.00
2013-8-9,73.0,60.4,51.0,54.0,52.2,51.0,100,77,48,0.00,40.00,32,25,39,0.00
2013-8-10,77.0,63.2,52.0,57.0,53.3,51.0,100,74,40,0.00,40.00,31,25,38,0.01
2013-8-11,81.0,67.9,54.0,54.0,50.9,47.0,98,58,33,0.00,40.00,29,20,37,0.01
2013-8-12,83.0,73.5,65.0,51.0,45.5,40.0,60,38,25,0.00,40.00,29,21,36,0.00
2013-8-13,93.0,77.9,67.0,48.0,39.4,-99.9,45,26,16,0.00,40.00,25,13,33,0.00
2013-8-14,85.0,74.7,65.0,51.0,40.8,-99.9,46,33,20,0.00,40.00,30,23,37,0.00
2013-8-15,85.0,70.7,59.0,60.0,45.6,-99.9,84,49,34,0.00,40.00,31,21,38,0.00
2013-8-16,88.0,74.3,68.0,60.0,50.4,-99.9,73,48,15,0.00,40.00,33,21,41,0.00
2013-8-17,83.0,74.4,67.0,53.0,45.3,-99.9,58,37,29,0.00,40.00,29,23,37,0.00
2013-8-18,94.0,83.0,67.0,54.0,49.6,43.0,58,32,23,0.00,40.00,20,8,28,0.00
2013-8-19,100.0,84.2,76.0,57.0,44.4,-99.9,40,27,21,0.00,40.00,30,10,38,0.00
2013-8-20,88.0,75.7,64.0,56.0,51.8,45.0,64,44,29,0.00,40.00,30,20,38,0.00
2013-8-21,82.0,68.3,55.0,54.0,50.5,42.0,91,56,32,0.00,40.00,27,17,38,0.00
2013-8-22,75.0,63.4,55.0,54.0,52.3,50.0,92,69,44,0.00,40.00,32,22,38,0.00
2013-8-23,79.0,63.8,52.0,53.0,50.3,41.0,99,67,35,0.00,40.00,30,23,36,0.00
2013-8-24,78.0,66.6,56.0,57.0,48.4,-99.9,88,55,40,0.00,40.00,34,27,43,0.00
2013-8-25,82.0,66.7,58.0,60.0,57.7,55.0,100,76,42,0.00,40.00,32,19,41,0.00
2013-8-26,79.0,65.6,57.0,57.0,53.4,42.0,96,69,38,0.00,40.00,30,20,41,0.00
2013-8-27,79.0,70.3,67.0,47.0,44.1,40.0,44,39,32,0.00,40.00,17,11,32,0.00
2013-8-28,82.0,74.6,66.0,58.0,54.7,49.0,71,51,32,0.00,40.00,27,22,32,0.00
2013-8-29,83.0,70.1,58.0,59.0,56.0,50.0,89,64,33,0.00,40.00,29,21,35,0.00
2013-8-30,94.0,78.3,68.0,56.0,51.4,41.0,65,42,18,0.00,40.00,23,15,31,0.00
2013-8-31,85.0,73.9,65.0,51.0,43.8,-99.9,61,36,24,0.00,40.00,31,20,39,0.00
2013-9-1,84.0,71.2,63.0,55.0,50.5,41.0,73,49,35,0.00,40.00,36,24,43,0.00
2013-9-2,79.0,67.9,63.0,59.0,56.1,53.0,85,67,43,0.00,40.00,32,22,38,0.00
2013-9-3,75.0,66.6,60.0,58.0,48.2,44.0,84,53,34,0.00,40.00,30,25,38,0.00
2013-9-4,77.0,64.7,57.0,54.0,51.2,47.0,86,64,36,0.00,40.00,38,26,47,0.00
2013-9-5,76.0,64.4,56.0,55.0,50.6,45.0,93,65,36,0.00,40.00,35,27,47,0.00
2013-9-6,87.0,74.1,61.0,50.0,45.0,34.0,60,38,20,0.00,40.00,19,6,30,0.00
2013-9-7,93.0,82.6,76.0,42.0,37.9,-99.9,28,21,15,0.00,40.00,16,6,23,0.00
2013-9-8,95.0,84.5,76.0,50.0,43.1,36.0,30,24,17,0.00,40.00,19,9,25,0.00
2013-9-9,96.0,85.3,80.0,46.0,39.5,31.0,27,20,16,0.00,40.00,31,14,39,0.00
2013-9-10,82.0,72.7,58.0,56.0,48.7,31.0,94,48,17,0.00,40.00,33,25,39,0.00
2013-9-11,73.0,61.9,55.0,57.0,54.5,52.0,97,79,51,0.00,40.00,33,22,39,0.00
2013-9-12,81.0,65.3,57.0,57.0,56.0,54.0,99,75,42,0.00,40.00,27,18,35,0.00
2013-9-13,83.0,67.8,54.0,55.0,51.9,41.0,100,61,31,0.00,40.00,29,18,37,0.00
2013-9-14,71.0,62.0,54.0,54.0,48.7,-99.9,97,65,34,0.00,40.00,34,24,40,0.00
2013-9-15,77.0,64.3,52.0,56.0,51.5,40.0,98,66,37,0.00,40.00,33,28,42,0.00
2013-9-16,80.0,66.6,57.0,55.0,52.5,47.0,85,63,32,0.00,40.00,33,22,41,0.00
2013-9-17,68.0,61.3,55.0,52.0,49.3,47.0,85,66,47,0.00,40.00,38,28,48,0.00
2013-9-18,69.0,63.2,60.0,49.0,44.2,39.0,64,51,34,0.00,40.00,20,13,25,0.00
2013-9-19,87.0,78.2,69.0,41.0,36.8,27.0,34,23,18,0.00,40.00,20,8,27,0.00
2013-9-20,72.0,64.5,59.0,56.0,49.8,25.0,87,62,17,0.00,40.00,41,30,53,0.00
2013-9-21,66.0,57.9,54.0,57.0,51.6,-99.9,95,82,52,0.00,40.00,27,15,42,0.19
2013-9-22,71.0,59.1,52.0,52.0,50.6,48.0,93,75,45,0.00,40.00,23,14,30,0.01
2013-9-23,79.0,66.9,57.0,55.0,51.0,48.0,79,59,37,0.00,40.00,23,8,30,0.00
2013-9-24,70.0,62.5,55.0,53.0,49.7,45.0,83,64,42,0.00,40.00,47,27,57,0.00
2013-9-25,65.0,56.3,51.0,47.0,43.6,40.0,79,64,42,0.00,40.00,36,21,52,0.00
2013-9-26,71.0,59.4,51.0,42.0,35.0,28.0,68,43,20,0.00,40.00,12,10,23,0.00
2013-9-27,73.0,63.7,55.0,34.0,31.6,28.0,41,31,19,0.00,40.00,15,8,21,0.00
2013-9-28,81.0,70.2,62.0,46.0,30.9,-99.9,56,25,17,0.00,40.00,22,8,28,0.00
2013-9-29,74.0,63.4,56.0,56.0,51.1,40.0,88,66,42,0.00,40.00,26,15,32,0.00
2013-9-30,72.0,64.4,58.0,56.0,54.8,53.0,88,73,54,0.00,40.00,30,17,38,0.00
2013-10-1,72.0,64.1,60.0,46.0,44.7,43.0,59,50,37,0.00,40.00,13,11,18,0.00
2013-10-2,76.0,64.7,57.0,47.0,39.8,35.0,58,41,26,0.00,40.00,27,12,33,0.00
2013-10-3,69.0,61.1,54.0,38.0,29.1,24.0,50,31,19,0.00,40.00,27,11,33,0.00
2013-10-4,75.0,64.0,53.0,31.0,26.4,21.0,37,25,16,0.00,40.00,11,7,26,0.00
2013-10-5,78.0,67.5,58.0,30.0,24.4,19.0,24,20,15,0.00,40.00,8,5,12,0.00
2013-10-6,80.0,72.8,64.0,34.0,30.8,26.0,26,21,18,0.00,40.00,6,4,11,0.00
2013-10-7,82.0,73.6,68.0,32.0,26.0,17.0,24,17,13,0.00,40.00,26,9,31,0.00
2013-10-8,74.0,63.8,52.0,41.0,33.7,20.0,66,34,16,0.00,40.00,24,10,31,0.00
2013-10-9,68.0,55.1,45.0,45.0,41.3,36.0,94,63,31,0.00,40.00,21,13,30,0.00
2013-10-10,70.0,62.2,56.0,45.0,37.0,32.0,60,40,29,0.00,40.00,12,8,22,0.00
2013-10-11,71.0,60.9,54.0,46.0,42.1,37.0,75,51,32,0.00,40.00,18,6,23,0.00
2013-10-12,72.0,60.9,51.0,42.0,35.1,-99.9,71,41,25,0.00,40.00,30,14,35,0.00
2013-10-13,71.0,59.5,51.0,45.0,37.9,33.0,77,48,25,0.00,40.00,30,10,35,0.00
2013-10-14,73.0,63.7,55.0,36.0,33.2,29.0,45,33,21,0.00,40.00,6,4,13,0.00
2013-10-18,79.0,73.0,68.0,35.0,32.3,24.0,29,23,19,0.00,40.00,18,4,22,0.00
2013-10-19,78.0,70.4,63.0,40.0,34.2,-99.9,36,27,22,0.00,40.00,5,3,8,0.00
2013-10-20,82.0,74.4,66.0,41.0,37.1,31.0,33,26,19,0.00,40.00,16,6,22,0.00
2013-10-21,76.0,71.0,67.0,42.0,39.9,34.0,39,33,27,0.00,40.00,16,4,21,0.00
2013-10-22,78.0,71.3,64.0,45.0,41.4,36.0,43,34,27,0.00,40.00,5,4,9,0.00
2013-10-23,80.0,73.5,66.0,46.0,41.7,36.0,43,33,22,0.00,40.00,20,9,24,0.00
2013-10-24,64.0,58.4,54.0,46.0,40.9,28.0,70,54,31,0.00,40.00,26,14,34,0.00
2013-10-25,73.0,61.8,48.0,45.0,41.3,30.0,86,49,27,0.00,40.00,13,5,29,0.00
2013-10-26,75.0,68.7,63.0,43.0,37.2,-99.9,44,33,23,0.00,40.00,8,4,12,0.00
2013-10-27,67.0,55.3,48.0,47.0,43.0,35.0,93,66,32,0.00,40.00,53,37,75,0.00
2013-10-28,59.0,50.1,47.0,45.0,40.7,-99.9,87,74,47,0.00,40.00,44,26,56,0.00
2013-10-29,59.0,52.0,48.0,44.0,42.4,41.0,87,71,54,0.00,40.00,21,10,27,0.00
2013-10-30,64.0,54.6,48.0,45.0,42.2,39.0,83,64,46,0.00,40.00,11,4,15,0.00
2013-10-31,69.0,59.6,52.0,42.0,39.5,36.0,65,48,33,0.00,40.00,6,3,9,0.00
2013-11-1,70.0,60.9,53.0,43.0,39.8,36.0,57,46,36,0.00,40.00,9,5,13,0.00
2013-11-2,71.0,62.4,53.0,48.0,38.7,-99.9,72,45,31,0.00,40.00,31,16,38,0.00
2013-11-3,61.0,53.9,48.0,42.0,23.1,18.0,61,31,21,0.00,40.00,14,6,23,0.00
2013-11-4,64.0,55.1,48.0,24.0,22.8,19.0,39,29,19,0.00,40.00,11,8,23,0.00
2013-11-5,67.0,57.9,49.0,28.0,26.1,22.0,41,30,23,0.00,40.00,8,4,18,0.00
2013-11-6,65.0,59.8,55.0,34.0,30.4,26.0,35,33,28,0.00,40.00,10,6,15,0.00
2013-11-7,71.0,62.8,58.0,38.0,30.4,25.0,41,30,23,0.00,40.00,17,6,21,0.00
2013-11-8,73.0,64.7,58.0,44.0,41.3,36.0,56,43,32,0.00,40.00,16,6,19,0.00
2013-11-9,67.0,60.0,54.0,45.0,40.7,-99.9,67,51,40,0.00,40.00,8,4,14,0.00
2013-11-10,67.0,60.9,55.0,46.0,42.9,39.0,63,52,46,0.00,40.00,8,4,11,0.00
2013-11-11,62.0,59.3,54.0,45.0,41.8,38.0,64,53,41,0.00,40.00,10,4,14,0.00
2013-11-12,70.0,62.5,55.0,44.0,39.5,36.0,67,44,32,0.00,40.00,19,6,29,0.00
2013-11-13,74.0,66.8,60.0,45.0,40.5,34.0,47,39,28,0.00,40.00,20,8,24,0.00
2013-11-14,70.0,61.5,52.0,48.0,43.6,38.0,82,53,39,0.00,40.00,34,17,41,0.00
2013-11-15,63.0,54.2,48.0,40.0,34.1,29.0,72,48,27,0.00,40.00,34,14,41,0.00
2013-11-16,59.0,49.9,43.0,44.0,37.4,-99.9,91,66,41,0.00,40.00,26,20,34,0.00
2013-11-17,60.0,51.5,45.0,48.0,44.9,43.0,100,79,58,0.00,40.00,21,9,28,0.00
2013-11-18,55.0,50.4,46.0,45.0,43.4,41.0,91,78,59,0.00,40.00,20,9,25,0.00
2013-11-19,58.0,52.7,47.0,52.0,46.7,41.0,96,81,64,0.00,40.00,18,6,22,0.18
2013-11-20,58.0,53.4,49.0,56.0,52.2,49.0,100,96,89,0.00,40.00,15,7,21,0.34
2013-11-21,55.0,48.1,44.0,49.0,34.0,22.0,100,62,34,0.00,40.00,13,8,25,0.01
2013-11-22,63.0,50.3,43.0,32.0,21.7,12.0,51,33,20,0.00,40.00,9,6,21,0.01
2013-11-23,57.0,49.9,43.0,37.0,31.6,-99.9,64,52,37,0.00,40.00,18,6,23,0.00
2013-11-24,57.0,52.2,48.0,43.0,38.3,34.0,71,59,51,0.00,40.00,13,3,19,0.00
2013-11-25,56.0,51.4,47.0,44.0,40.1,34.0,72,65,51,0.00,40.00,5,3,8,0.00
2013-11-26,54.0,49.8,46.0,43.0,40.6,38.0,81,71,59,0.00,40.00,9,5,12,0.00
2013-11-27,54.0,49.2,44.0,46.0,43.4,40.0,94,81,65,0.00,40.00,7,3,11,0.00
2013-11-28,64.0,55.9,50.0,42.0,38.0,33.0,67,52,38,0.00,40.00,8,2,12,0.00
2013-11-29,62.0,59.0,55.0,43.0,39.4,34.0,55,48,40,0.00,40.00,8,3,12,0.00
2013-11-30,62.0,57.4,53.0,45.0,37.4,-99.9,66,49,43,0.00,40.00,5,2,8,0.00
2013-12-1,65.0,60.1,55.0,42.0,38.5,36.0,51,45,40,0.00,40.00,4,2,7,0.00
2013-12-2,69.0,56.7,50.0,48.0,43.2,32.0,94,66,25,0.00,40.00,33,25,41,0.00
2013-12-3,51.0,46.1,41.0,51.0,33.5,15.0,100,65,34,0.00,40.00,44,22,55,0.00
2013-12-4,44.0,39.0,35.0,15.0,10.6,5.0,37,31,25,0.00,40.00,12,6,21,0.00
2013-12-5,45.0,37.2,31.0,13.0,9.4,6.0,35,31,26,0.00,40.00,8,4,15,0.00
2013-12-6,47.0,42.0,36.0,40.0,27.0,12.0,84,56,34,0.00,40.00,29,11,43,0.00
2013-12-7,45.0,37.9,32.0,42.0,27.3,-99.9,100,70,42,0.00,40.00,31,15,43,0.21
2013-12-8,39.0,32.1,27.0,24.0,20.7,14.0,77,63,50,0.00,40.00,5,3,10,0.00
2013-12-9,39.0,33.9,27.0,23.0,17.5,11.0,58,51,41,0.00,40.00,10,5,16,0.00
2013-12-10,45.0,38.7,33.0,27.0,23.7,14.0,68,55,28,0.00,40.00,7,4,11,0.00
2013-12-11,46.0,41.9,34.0,29.0,24.8,14.0,66,51,31,0.00,40.00,13,7,17,0.00
2013-12-12,54.0,46.1,38.0,32.0,28.2,21.0,61,50,39,0.00,40.00,9,4,16,0.00
2013-12-13,56.0,52.6,43.0,34.0,27.3,22.0,49,38,27,0.00,40.00,12,4,15,0.00
2013-12-14,52.0,48.4,46.0,35.0,29.1,-99.9,60,49,39,0.00,40.00,10,5,12,0.00
2013-12-15,54.0,49.4,43.0,36.0,32.0,25.0,64,52,33,0.00,40.00,10,6,12,0.00
2013-12-16,58.0,53.2,48.0,37.0,31.9,26.0,54,45,30,0.00,40.00,9,7,13,0.00
2013-12-17,58.0,53.6,49.0,40.0,33.4,29.0,56,46,35,0.00,40.00,8,4,11,0.00
2013-12-18,62.0,54.0,45.0,44.0,33.1,26.0,94,49,27,0.00,40.00,38,14,46,0.00
2013-12-19,55.0,46.2,40.0,43.0,27.9,11.0,90,55,26,0.00,40.00,41,16,52,0.00
2013-12-20,56.0,47.4,39.0,19.0,7.3,3.0,26,20,14,0.00,40.00,11,6,21,0.00
2013-12-21,61.0,52.9,48.0,40.0,28.2,-99.9,59,41,25,0.00,40.00,13,6,23,0.00
2013-12-22,59.0,53.3,48.0,36.0,31.2,28.0,55,43,35,0.00,40.00,6,4,9,0.00
2013-12-23,55.0,52.4,48.0,36.0,34.5,31.0,56,51,43,0.00,40.00,7,4,11,0.00
2013-12-24,63.0,57.5,51.0,37.0,34.1,31.0,55,42,35,0.00,40.00,5,4,12,0.00
2013-12-25,56.0,52.8,48.0,38.0,34.5,31.0,60,50,40,0.00,40.00,9,5,11,0.00
2013-12-26,60.0,54.4,49.0,40.0,36.4,22.0,65,51,23,0.00,40.00,9,6,11,0.00
2013-12-27,54.0,51.9,48.0,41.0,34.9,26.0,67,53,34,0.00,40.00,9,5,12,0.00
2013-12-28,62.0,53.2,45.0,30.0,23.6,-99.9,51,34,22,0.00,40.00,8,4,16,0.00
2013-12-29,57.0,52.4,48.0,32.0,23.1,15.0,44,32,23,0.00,40.00,9,6,16,0.00
2013-12-30,57.0,51.7,46.0,35.0,31.7,26.0,55,46,37,0.00,40.00,7,4,9,0.00
2013-12-31,57.0,53.1,49.0,37.0,30.7,19.0,56,43,23,0.00,40.00,6,3,9,0.00
2014-1-1,60.0,57.2,52.0,28.0,25.7,20.0,33,30,25,0.00,40.00,5,3,7,0.00
2014-1-2,59.0,54.9,48.0,33.0,28.2,23.0,47,36,27,0.00,40.00,7,4,9,0.00